Madera Ranchos
DateTemperatureDew Point
09/02 - 07:45 AM59.3°53.4°
09/02 - 07:30 AM56.2°53.2°
09/02 - 07:15 AM53.6°52.3°
09/02 - 07:00 AM51.8°51.1°
09/02 - 06:45 AM50.7°49.8°
09/02 - 06:30 AM49.5°48.5°
09/02 - 06:15 AM49.3°48.2°
09/02 - 06:00 AM49.4°48.1°
09/02 - 05:45 AM49.1°47.4°
09/02 - 05:30 AM49.5°47.5°
09/02 - 05:15 AM50.7°48.6°
09/02 - 05:00 AM51.5°49.2°
09/02 - 04:45 AM52.1°49.4°
09/02 - 04:30 AM52.7°49.7°
09/02 - 04:15 AM53.5°50.1°
09/02 - 04:00 AM53.8°50.3°
09/02 - 03:45 AM53.8°50.2°
09/02 - 03:30 AM54.2°50.3°
09/02 - 03:15 AM54.3°50.3°
09/02 - 03:00 AM54.2°50.2°
09/02 - 02:45 AM54.5°50.1°
09/02 - 02:30 AM54.9°50.2°
09/02 - 02:15 AM55.1°50.4°
09/02 - 02:00 AM55.4°50.6°
09/02 - 01:45 AM55.9°50.7°
09/02 - 01:30 AM57.0°50.7°
09/02 - 01:15 AM57.7°50.5°
09/02 - 01:00 AM58.2°50.4°
09/02 - 12:45 AM58.8°50.2°
09/02 - 12:30 AM59.5°50.4°
09/02 - 12:15 AM60.1°50.5°
09/02 - 12:00 AM60.5°50.6°
09/01 - 11:45 PM61.0°50.6°
09/01 - 11:30 PM61.3°50.9°
09/01 - 11:15 PM61.8°51.0°
09/01 - 11:00 PM62.4°51.1°
09/01 - 10:45 PM62.9°51.3°
09/01 - 10:30 PM63.3°51.4°
09/01 - 10:15 PM63.8°51.7°
09/01 - 10:00 PM64.2°51.8°
09/01 - 09:45 PM64.8°51.8°
09/01 - 09:30 PM65.6°51.8°
09/01 - 09:15 PM66.2°51.2°
09/01 - 09:00 PM66.6°49.7°
09/01 - 08:45 PM67.2°49.1°
09/01 - 08:30 PM67.7°49.9°
09/01 - 08:15 PM68.4°50.7°
09/01 - 08:00 PM69.5°50.9°
09/01 - 07:45 PM70.6°50.6°
09/01 - 07:30 PM71.5°50.2°
09/01 - 07:15 PM71.0°50.1°
09/01 - 07:00 PM72.7°50.6°
09/01 - 06:45 PM74.9°50.1°
09/01 - 06:30 PM76.2°49.8°
09/01 - 06:15 PM76.8°49.8°
09/01 - 06:00 PM76.7°50.1°
09/01 - 05:45 PM77.9°50.7°
09/01 - 05:30 PM79.6°51.1°
09/01 - 05:15 PM80.1°51.3°
09/01 - 05:00 PM79.8°51.3°
09/01 - 04:45 PM80.5°51.2°
09/01 - 04:30 PM82.0°51.2°
09/01 - 04:15 PM83.5°50.8°
09/01 - 04:00 PM83.0°49.0°
09/01 - 03:45 PM82.4°49.6°
09/01 - 03:30 PM81.9°50.1°
09/01 - 03:15 PM82.5°50.9°
09/01 - 03:00 PM81.8°51.2°
09/01 - 02:45 PM80.5°51.0°
09/01 - 02:30 PM80.2°51.0°
09/01 - 02:15 PM80.2°51.2°
09/01 - 02:00 PM80.6°51.5°
09/01 - 01:45 PM79.0°51.3°
09/01 - 01:30 PM78.6°51.7°
09/01 - 01:15 PM77.5°51.5°
09/01 - 01:00 PM77.1°51.6°
09/01 - 12:45 PM77.0°51.9°
09/01 - 12:30 PM76.8°52.2°
09/01 - 12:15 PM74.4°51.4°
09/01 - 12:00 PM74.1°51.6°
09/01 - 11:45 AM73.4°52.0°
09/01 - 11:30 AM72.1°51.7°
09/01 - 11:15 AM72.2°51.9°
09/01 - 11:00 AM72.1°52.4°
09/01 - 10:45 AM70.7°52.0°
09/01 - 10:30 AM70.1°52.5°
09/01 - 10:15 AM69.7°52.4°
09/01 - 10:00 AM68.7°52.4°
09/01 - 09:45 AM67.6°52.4°
09/01 - 09:30 AM67.0°52.2°
09/01 - 09:15 AM66.4°52.0°
09/01 - 09:00 AM65.7°52.2°
09/01 - 08:45 AM64.8°51.9°
09/01 - 08:30 AM63.9°52.1°
09/01 - 08:15 AM62.8°52.1°
09/01 - 08:00 AM61.5°52.2°
09/01 - 07:45 AM60.1°52.0°
09/01 - 07:30 AM58.6°52.1°
09/01 - 07:15 AM57.0°52.2°
09/01 - 07:00 AM54.0°52.3°
09/01 - 06:45 AM51.4°50.2°
09/01 - 06:30 AM50.5°49.1°
09/01 - 06:15 AM51.2°49.7°
09/01 - 06:00 AM51.6°50.1°
09/01 - 05:45 AM51.6°50.2°
09/01 - 05:30 AM51.4°49.8°
09/01 - 05:15 AM51.4°49.6°
09/01 - 05:00 AM52.0°49.9°
09/01 - 04:45 AM52.9°50.4°
09/01 - 04:30 AM53.8°51.0°
09/01 - 04:15 AM54.3°51.3°
09/01 - 04:00 AM54.9°51.3°
09/01 - 03:45 AM55.8°51.7°
09/01 - 03:30 AM56.5°51.7°
09/01 - 03:15 AM57.1°51.9°
09/01 - 03:00 AM57.8°51.9°
09/01 - 02:45 AM58.8°52.0°
09/01 - 02:30 AM59.5°52.1°
09/01 - 02:15 AM60.0°52.2°
09/01 - 02:00 AM60.2°52.6°
09/01 - 01:45 AM60.7°52.8°
09/01 - 01:30 AM61.0°52.9°
09/01 - 01:15 AM61.4°53.0°
09/01 - 01:00 AM61.5°52.9°
09/01 - 12:45 AM62.0°53.1°
09/01 - 12:30 AM62.3°53.1°
09/01 - 12:15 AM62.4°53.0°
09/01 - 12:00 AM62.9°53.3°
08/31 - 11:45 PM63.2°53.5°
08/31 - 11:30 PM63.4°53.6°
08/31 - 11:15 PM63.6°53.9°
08/31 - 11:00 PM63.9°54.1°
08/31 - 10:45 PM63.9°54.2°
08/31 - 10:30 PM64.1°54.2°
08/31 - 10:15 PM64.4°54.1°
08/31 - 10:00 PM65.0°54.0°
08/31 - 09:45 PM65.6°53.9°
08/31 - 09:30 PM66.3°53.8°
08/31 - 09:15 PM67.3°53.8°
08/31 - 09:00 PM68.2°53.7°
08/31 - 08:45 PM68.8°53.3°
08/31 - 08:30 PM70.0°53.2°
08/31 - 08:15 PM71.6°52.1°
08/31 - 08:00 PM72.7°50.5°
08/31 - 07:45 PM74.1°49.6°
08/31 - 07:30 PM75.5°48.9°
08/31 - 07:15 PM76.8°49.2°
08/31 - 07:00 PM77.6°49.6°
08/31 - 06:45 PM78.9°50.0°
08/31 - 06:30 PM80.6°50.7°
08/31 - 06:15 PM83.1°52.0°
08/31 - 06:00 PM84.9°52.1°
08/31 - 05:45 PM86.5°53.8°
08/31 - 05:30 PM87.0°53.3°
08/31 - 05:15 PM88.5°53.1°
08/31 - 05:00 PM89.1°53.2°
08/31 - 04:45 PM90.2°53.1°
08/31 - 04:30 PM90.0°53.6°
08/31 - 04:15 PM89.1°53.3°
08/31 - 04:00 PM89.7°53.8°
08/31 - 03:45 PM89.9°53.6°
08/31 - 03:30 PM90.6°54.5°
08/31 - 03:15 PM90.6°54.0°
08/31 - 03:00 PM90.7°54.3°
08/31 - 02:45 PM90.0°54.2°
08/31 - 02:30 PM89.3°53.9°
08/31 - 02:15 PM88.7°53.8°
08/31 - 02:00 PM87.5°54.5°
08/31 - 01:45 PM88.0°53.6°
08/31 - 01:30 PM87.6°54.1°
08/31 - 01:15 PM86.5°54.4°
08/31 - 01:00 PM85.7°54.8°
08/31 - 12:45 PM84.5°54.7°
08/31 - 12:30 PM83.7°54.8°
08/31 - 12:15 PM83.3°54.6°
08/31 - 12:00 PM83.1°54.7°
08/31 - 11:45 AM82.4°54.7°
08/31 - 11:30 AM81.6°54.8°
08/31 - 11:15 AM80.3°55.0°
08/31 - 11:00 AM78.8°55.0°
08/31 - 10:45 AM78.3°55.7°
08/31 - 10:30 AM77.1°55.5°
08/31 - 10:15 AM75.5°55.0°
08/31 - 10:00 AM74.5°55.3°
08/31 - 09:45 AM73.2°54.8°
08/31 - 09:30 AM72.6°55.0°
08/31 - 09:15 AM71.2°54.6°
08/31 - 09:00 AM70.3°54.7°
08/31 - 08:45 AM68.4°53.9°